Showing default

MOMENTUS-X1, 44408

Orbit data source: Space-Track

MOMENTUS-X1, 44408 is a payload satellite owned by Momentus (US) in SSO that was launched on Fri, 05 Jul 2019 UTC via a SOYUZ-2-1B launch vehicle from the Vostochny Cosmodrome (VOSTO). Payload-class satellites include a variety of spacecraft equipped with specific instruments for various scientific and technological missions. These include communications satellites like Starlink; space stations such as the ISS; scientific satellites like the Hubble; Earth observation satellites from companies like Planet Labs, Umbra, and HawkEye 360; GPS; miniature CubeSats for education and research; and military/defense satellites.

Loading next visibility...
Identifier
44408, 2019-038Y
Orbit
SSO
Country
Flag of USUS
Related business
Manufacturer
Astro Digital
Mission
Operational Commercial Technology
Bus & Motor
CUBESAT 16U, Unknown motor
Mass
~20 kg wet, ~20 kg dry
Launch date (UTC)
2019-07-05 (7 years ago)
Launch vehicle
SOYUZ-2-1B
Launch site
Vostochny Cosmodrome (VOSTO)
Object type
Payload
Rocket body
Debris
Shape & HBR
Box, 0.2 m
Radar Cross Section
0.160 m², Medium (>0.1 m² and < 1m²)

Expand to show TLE details & history
Last TLE update: 1 day ago

TLE from 1 day ago
0 MOMENTUS-X1
1 44408U 19038Y   26125.07490736  .00041718  00000-0  45581-3 0  9990
2 44408  97.6789 166.6302 0009538 162.5947 197.5639 15.63178621379819
Epoch: 2026-05-05T01:47Z
TLE epoch observation values (Epoch: 2026-05-05T01:47:51.995Z)
Latitude
-0.0001°
Longitude
-83.2914°
Altitude
387.769 km
Speed
7.674 km/s
True Right ascension
11h 06m 31s
True Declination
0° 00' 00"
Sunlit
Object was in full shadow at epoch
Visualization orbit readout
Latitude
Unknown
Longitude
Unknown
Altitude
Unknown
Speed
Unknown
Apparent Right ascension
Unknown
Apparent Declination
Unknown
Sunlit
N/A
Visualization observer readout
Local Sidereal Time
15:44:07
Azimuth
Unknown
Elevation
Unknown
Doppler factor
Unknown
Orbital elements
Apogee altitude
381.844 km
Perigee altitude
368.961 km
Semi-major axis
6,753.54 km
Eccentricity
0.00095
Inclination
97.6789°
RAAN
166.6302°
Arg. of periapsis
162.5947°
True anomaly
197.53095°
Mean anomaly
197.5639°
Eccentric anomaly
197.54742°
Mean motion
3.91062 °/min
Orbital period
92.06 mins
BSTAR
0.00045581
Loading maneuver chart data...
Computing Atmospheric mass density...

Documentation

Showing up to 5 results
|